AEE941 LGAV-LGTS

Flight info

Callsign AEE941
Flight time 0h 46m
Altitude 32000
Route KRO UT162 NEVRA UT514 OSMOS
Aircraft A320/M-SDE3FGHIRWY/LB1

Departure

Time 2026-05-07 19:47
Airport Athens Eleftherios Venizelos International Airport (LGAV)

Arrival

Time 2026-05-07 20:34
Airport Thessaloniki Macedonia International Airport (LGTS)
Time Latitude Longitude Altitude Speed Heading
2026-05-07 19:19 37.93748 23.94975 300 ft 0 kts 306°
2026-05-07 19:35 37.93743 23.94983 301 ft 2 kts 304°
2026-05-07 19:35 37.93733 23.95000 300 ft 2 kts 305°
2026-05-07 19:35 37.93724 23.95017 300 ft 2 kts 308°
2026-05-07 19:35 37.93713 23.95033 300 ft 2 kts 310°
2026-05-07 19:36 37.93702 23.95048 300 ft 2 kts 340°
2026-05-07 19:36 37.93692 23.95047 302 ft 1 kts 34°
2026-05-07 19:36 37.93691 23.95047 300 ft 0 kts 33°
2026-05-07 19:39 37.93694 23.95049 300 ft 2 kts 33°
2026-05-07 19:39 37.93713 23.95068 300 ft 3 kts 37°
2026-05-07 19:39 37.93735 23.95089 300 ft 5 kts 38°
2026-05-07 19:39 37.93769 23.95122 300 ft 7 kts 37°
2026-05-07 19:40 37.93814 23.95165 300 ft 8 kts 37°
2026-05-07 19:40 37.93846 23.95202 300 ft 7 kts 53°
2026-05-07 19:40 37.93871 23.95267 302 ft 9 kts 68°
2026-05-07 19:40 37.93888 23.95341 302 ft 9 kts 94°
2026-05-07 19:41 37.93856 23.95412 298 ft 10 kts 115°
2026-05-07 19:41 37.93883 23.95503 298 ft 13 kts 42°
2026-05-07 19:41 37.93963 23.95578 299 ft 16 kts 37°
2026-05-07 19:41 37.94056 23.95666 297 ft 18 kts 36°
2026-05-07 19:42 37.94150 23.95755 297 ft 16 kts 37°
2026-05-07 19:42 37.94245 23.95846 298 ft 18 kts 36°
2026-05-07 19:42 37.94351 23.95946 299 ft 19 kts 36°
2026-05-07 19:42 37.94459 23.96048 299 ft 20 kts 37°
2026-05-07 19:43 37.94577 23.96160 301 ft 22 kts 36°
2026-05-07 19:43 37.94702 23.96279 300 ft 20 kts 36°
2026-05-07 19:43 37.94820 23.96391 300 ft 22 kts 37°
2026-05-07 19:43 37.94931 23.96496 302 ft 20 kts 36°
2026-05-07 19:44 37.95047 23.96606 301 ft 22 kts 37°
2026-05-07 19:44 37.95166 23.96719 303 ft 19 kts 37°
2026-05-07 19:44 37.95260 23.96809 302 ft 13 kts 37°
2026-05-07 19:44 37.95300 23.96868 306 ft 9 kts 82°
2026-05-07 19:45 37.95275 23.96934 305 ft 6 kts 125°
2026-05-07 19:45 37.95257 23.96967 307 ft 5 kts 126°
2026-05-07 19:45 37.95241 23.96994 309 ft 3 kts 126°
2026-05-07 19:45 37.95217 23.97025 311 ft 5 kts 156°
2026-05-07 19:46 37.95180 23.97010 309 ft 6 kts 212°
2026-05-07 19:46 37.95162 23.96994 309 ft 0 kts 216°
2026-05-07 19:46 37.95151 23.96984 310 ft 16 kts 216°
2026-05-07 19:47 37.94857 23.96705 305 ft 87 kts 217°
2026-05-07 19:47 37.94217 23.96097 285 ft 140 kts 217°
2026-05-07 19:47 37.93338 23.95264 468 ft 163 kts 216°
2026-05-07 19:47 37.92392 23.94534 1114 ft 159 kts 208°
2026-05-07 19:48 37.91405 23.93885 1746 ft 160 kts 207°
2026-05-07 19:48 37.90400 23.93217 2227 ft 171 kts 208°
2026-05-07 19:48 37.89284 23.92466 2490 ft 193 kts 209°
2026-05-07 19:48 37.88034 23.91620 2737 ft 215 kts 209°
2026-05-07 19:49 37.86639 23.90668 3053 ft 239 kts 210°
2026-05-07 19:49 37.85165 23.89660 3780 ft 247 kts 209°
2026-05-07 19:49 37.83650 23.88625 4682 ft 249 kts 209°
2026-05-07 19:49 37.82122 23.87580 5608 ft 251 kts 208°
2026-05-07 19:50 37.80582 23.86529 6493 ft 253 kts 207°
2026-05-07 19:50 37.79025 23.85470 7342 ft 257 kts 207°
2026-05-07 19:50 37.77355 23.84626 8128 ft 261 kts 188°
2026-05-07 19:50 37.75547 23.84827 8883 ft 267 kts 160°
2026-05-07 19:51 37.73987 23.86190 9350 ft 284 kts 128°
2026-05-07 19:51 37.72981 23.88386 9962 ft 293 kts 118°
2026-05-07 19:51 37.72031 23.90713 10473 ft 307 kts 118°
2026-05-07 19:51 37.71013 23.93199 10690 ft 330 kts 118°
2026-05-07 19:52 37.69916 23.95863 10870 ft 353 kts 118°
2026-05-07 19:52 37.68760 23.98662 11319 ft 364 kts 118°
2026-05-07 19:52 37.67576 24.01520 11909 ft 371 kts 118°
2026-05-07 19:52 37.66366 24.04424 12494 ft 376 kts 118°
2026-05-07 19:53 37.65140 24.07362 13101 ft 381 kts 118°
2026-05-07 19:53 37.63899 24.10333 13714 ft 385 kts 118°
2026-05-07 19:53 37.62646 24.13336 14324 ft 388 kts 118°
2026-05-07 19:53 37.61382 24.16362 14914 ft 392 kts 118°
2026-05-07 19:54 37.60231 24.19494 15462 ft 396 kts 107°
2026-05-07 19:54 37.59755 24.22911 16002 ft 397 kts 90°
2026-05-07 19:54 37.60081 24.26363 16509 ft 398 kts 72°
2026-05-07 19:54 37.61185 24.29543 17044 ft 396 kts 54°
2026-05-07 19:55 37.62954 24.32174 17582 ft 394 kts 38°
2026-05-07 19:55 37.65224 24.34056 18117 ft 390 kts 21°
2026-05-07 19:55 37.67761 24.35259 18653 ft 391 kts 16°
2026-05-07 19:55 37.70336 24.36403 19182 ft 394 kts 16°
2026-05-07 19:56 37.72932 24.37558 19690 ft 397 kts 16°
2026-05-07 19:56 37.75548 24.38727 20190 ft 401 kts 16°
2026-05-07 19:56 37.78188 24.39914 20682 ft 404 kts 15°
2026-05-07 19:56 37.80814 24.41095 21138 ft 407 kts 15°
2026-05-07 19:57 37.83528 24.42316 21581 ft 411 kts 15°
2026-05-07 19:57 37.86193 24.43516 22001 ft 414 kts 15°
2026-05-07 19:57 37.88917 24.44743 22417 ft 417 kts 15°
2026-05-07 19:57 37.91659 24.45979 22824 ft 420 kts 15°
2026-05-07 19:58 37.94420 24.47225 23225 ft 423 kts 15°
2026-05-07 19:58 37.97200 24.48479 23621 ft 426 kts 15°
2026-05-07 19:58 38.00007 24.49735 24037 ft 428 kts 14°
2026-05-07 19:58 38.02848 24.50907 24429 ft 430 kts 13°
2026-05-07 19:59 38.05718 24.51995 24816 ft 432 kts 11°
2026-05-07 19:59 38.08613 24.53038 25201 ft 433 kts 11°
2026-05-07 19:59 38.11516 24.54070 25582 ft 435 kts 11°
2026-05-07 19:59 38.14437 24.55095 25956 ft 435 kts
2026-05-07 20:00 38.17404 24.55697 26338 ft 431 kts 359°
2026-05-07 20:00 38.20387 24.55723 26714 ft 427 kts 352°
2026-05-07 20:00 38.23357 24.55478 27097 ft 427 kts 351°
2026-05-07 20:00 38.26316 24.55237 27392 ft 427 kts 352°
2026-05-07 20:01 38.29296 24.54991 27710 ft 431 kts 352°
2026-05-07 20:01 38.32287 24.54743 28066 ft 431 kts 352°
2026-05-07 20:01 38.35281 24.54506 28373 ft 431 kts 352°
2026-05-07 20:01 38.38275 24.54254 28641 ft 432 kts 352°
2026-05-07 20:02 38.41271 24.53995 29020 ft 431 kts 352°
2026-05-07 20:02 38.44259 24.53741 29464 ft 430 kts 352°
2026-05-07 20:02 38.47239 24.53484 29926 ft 428 kts 351°
2026-05-07 20:02 38.50201 24.53222 30403 ft 426 kts 351°
2026-05-07 20:03 38.53146 24.52959 30883 ft 423 kts 351°
2026-05-07 20:03 38.56070 24.52695 31426 ft 419 kts 350°
2026-05-07 20:03 38.58958 24.52435 31940 ft 414 kts 350°
2026-05-07 20:03 38.61815 24.52183 32101 ft 409 kts 349°
2026-05-07 20:04 38.67514 24.51703 32137 ft 411 kts 350°
2026-05-07 20:04 38.73194 24.51240 32135 ft 412 kts 350°
2026-05-07 20:05 38.78918 24.50773 32133 ft 413 kts 350°
2026-05-07 20:05 38.84659 24.50305 32131 ft 414 kts 350°
2026-05-07 20:06 38.90420 24.49838 32116 ft 415 kts 350°
2026-05-07 20:06 38.95959 24.48334 32116 ft 403 kts 333°
2026-05-07 20:07 39.00610 24.44516 32099 ft 396 kts 315°
2026-05-07 20:07 39.04224 24.39201 32096 ft 395 kts 309°
2026-05-07 20:08 39.07746 24.33754 32092 ft 396 kts 309°
2026-05-07 20:08 39.11284 24.28298 32090 ft 397 kts 309°
2026-05-07 20:09 39.14822 24.22826 32095 ft 397 kts 308°
2026-05-07 20:10 39.20096 24.14615 32080 ft 397 kts 308°
2026-05-07 20:10 39.23641 24.09118 32083 ft 400 kts 308°
2026-05-07 20:11 39.27178 24.03590 32081 ft 399 kts 308°
2026-05-07 20:11 39.31000 23.98387 32075 ft 402 kts 319°
2026-05-07 20:12 39.35669 23.94360 32086 ft 403 kts 323°
2026-05-07 20:12 39.40362 23.90382 32088 ft 404 kts 323°
2026-05-07 20:13 39.45072 23.86382 32089 ft 406 kts 323°
2026-05-07 20:13 39.49802 23.82355 32110 ft 407 kts 323°
2026-05-07 20:14 39.54516 23.78318 31997 ft 406 kts 323°
2026-05-07 20:14 39.56877 23.76301 31746 ft 407 kts 323°
2026-05-07 20:14 39.59249 23.74270 31476 ft 410 kts 323°
2026-05-07 20:14 39.61632 23.72227 30677 ft 413 kts 323°
2026-05-07 20:15 39.64049 23.70154 29709 ft 419 kts 323°
2026-05-07 20:15 39.66496 23.68053 28902 ft 423 kts 323°
2026-05-07 20:15 39.68934 23.65960 28385 ft 418 kts 323°
2026-05-07 20:15 39.71354 23.63882 27787 ft 416 kts 324°
2026-05-07 20:16 39.73763 23.61817 27192 ft 414 kts 324°
2026-05-07 20:16 39.76161 23.59762 26605 ft 412 kts 324°
2026-05-07 20:16 39.78510 23.57744 26014 ft 409 kts 324°
2026-05-07 20:16 39.80874 23.55708 25432 ft 406 kts 324°
2026-05-07 20:17 39.82458 23.54341 25036 ft 404 kts 324°
2026-05-07 20:17 39.85548 23.51676 24269 ft 400 kts 324°
2026-05-07 20:17 39.87862 23.49679 23700 ft 398 kts 324°
2026-05-07 20:17 39.90161 23.47691 23129 ft 395 kts 324°
2026-05-07 20:18 39.92442 23.45716 22572 ft 393 kts 324°
2026-05-07 20:18 39.94711 23.43750 22031 ft 390 kts 324°
2026-05-07 20:18 39.96232 23.42431 21668 ft 388 kts 324°
2026-05-07 20:18 39.98472 23.40487 21128 ft 385 kts 324°
2026-05-07 20:19 40.00696 23.38555 20608 ft 383 kts 324°
2026-05-07 20:19 40.02901 23.36636 20098 ft 379 kts 324°
2026-05-07 20:19 40.05084 23.34729 19624 ft 376 kts 323°
2026-05-07 20:19 40.07247 23.32838 19128 ft 372 kts 323°
2026-05-07 20:20 40.09388 23.30967 18634 ft 369 kts 323°
2026-05-07 20:20 40.11510 23.29114 18130 ft 365 kts 323°
2026-05-07 20:20 40.13613 23.27279 17616 ft 361 kts 323°
2026-05-07 20:20 40.15697 23.25479 17104 ft 358 kts 324°
2026-05-07 20:21 40.17776 23.23785 16592 ft 355 kts 326°
2026-05-07 20:21 40.19890 23.22135 16060 ft 353 kts 326°
2026-05-07 20:21 40.22000 23.20512 15523 ft 350 kts 326°
2026-05-07 20:21 40.24105 23.18890 14886 ft 351 kts 326°
2026-05-07 20:22 40.26201 23.17267 14341 ft 349 kts 326°
2026-05-07 20:22 40.28309 23.15626 13792 ft 347 kts 326°
2026-05-07 20:22 40.30342 23.14032 13264 ft 345 kts 326°
2026-05-07 20:22 40.32402 23.12407 12649 ft 347 kts 326°
2026-05-07 20:23 40.34469 23.10775 12004 ft 346 kts 326°
2026-05-07 20:23 40.36528 23.09148 11344 ft 346 kts 326°
2026-05-07 20:23 40.38597 23.07511 10700 ft 347 kts 326°
2026-05-07 20:23 40.40664 23.05875 10088 ft 347 kts 326°
2026-05-07 20:24 40.42716 23.04253 9577 ft 337 kts 326°
2026-05-07 20:24 40.44667 23.02716 9251 ft 318 kts 327°
2026-05-07 20:24 40.46509 23.01260 8931 ft 301 kts 326°
2026-05-07 20:24 40.48270 22.99862 8605 ft 291 kts 326°
2026-05-07 20:25 40.50002 22.98484 8286 ft 292 kts 326°
2026-05-07 20:25 40.51733 22.97106 7971 ft 290 kts 327°
2026-05-07 20:25 40.53482 22.95798 7637 ft 289 kts 329°
2026-05-07 20:25 40.55253 22.94575 7343 ft 285 kts 331°
2026-05-07 20:26 40.57009 22.93402 7068 ft 282 kts 331°
2026-05-07 20:26 40.58748 22.92248 6786 ft 277 kts 331°
2026-05-07 20:26 40.60429 22.91132 6512 ft 265 kts 331°
2026-05-07 20:26 40.62055 22.90044 6245 ft 261 kts 331°
2026-05-07 20:27 40.63665 22.88961 5966 ft 259 kts 331°
2026-05-07 20:27 40.65262 22.87878 5677 ft 256 kts 330°
2026-05-07 20:27 40.66831 22.86808 5394 ft 253 kts 331°
2026-05-07 20:27 40.68388 22.85740 5134 ft 252 kts 331°
2026-05-07 20:28 40.69937 22.84679 4858 ft 250 kts 331°
2026-05-07 20:28 40.71527 22.83793 4579 ft 249 kts 348°
2026-05-07 20:28 40.73233 22.83883 4290 ft 248 kts 18°
2026-05-07 20:28 40.74684 22.85049 3960 ft 246 kts 51°
2026-05-07 20:29 40.75302 22.87047 3678 ft 233 kts 92°
2026-05-07 20:29 40.74801 22.88965 3543 ft 219 kts 134°
2026-05-07 20:29 40.73553 22.90060 3524 ft 218 kts 159°
2026-05-07 20:29 40.72108 22.90667 3516 ft 219 kts 166°
2026-05-07 20:30 40.70625 22.91150 3445 ft 219 kts 167°
2026-05-07 20:30 40.69148 22.91618 3214 ft 218 kts 167°
2026-05-07 20:30 40.67684 22.92086 2947 ft 216 kts 167°
2026-05-07 20:30 40.66235 22.92548 2681 ft 209 kts 167°
2026-05-07 20:31 40.64859 22.92989 2402 ft 196 kts 166°
2026-05-07 20:31 40.63589 22.93393 2150 ft 178 kts 166°
2026-05-07 20:31 40.62435 22.93761 1907 ft 163 kts 166°
2026-05-07 20:31 40.61382 22.94097 1715 ft 150 kts 166°
2026-05-07 20:32 40.60395 22.94411 1518 ft 144 kts 165°
2026-05-07 20:32 40.59429 22.94719 1328 ft 142 kts 165°
2026-05-07 20:32 40.58471 22.95024 1141 ft 141 kts 165°
2026-05-07 20:32 40.57516 22.95329 951 ft 141 kts 165°
2026-05-07 20:33 40.56568 22.95631 768 ft 141 kts 165°
2026-05-07 20:33 40.55610 22.95935 583 ft 140 kts 165°
2026-05-07 20:33 40.54665 22.96241 400 ft 140 kts 165°
2026-05-07 20:33 40.53717 22.96546 220 ft 140 kts 166°
2026-05-07 20:34 40.52774 22.96844 67 ft 140 kts 165°
2026-05-07 20:34 40.51914 22.97119 27 ft 106 kts 166°
2026-05-07 20:34 40.51558 22.97244 30 ft 14 kts 159°
2026-05-07 20:34 40.51524 22.97269 30 ft 5 kts 133°
2026-05-07 20:35 40.51512 22.97328 30 ft 7 kts 92°
2026-05-07 20:35 40.51514 22.97354 29 ft 5 kts 81°
2026-05-07 20:35 40.51544 22.97400 29 ft 8 kts 24°
2026-05-07 20:35 40.51608 22.97394 29 ft 10 kts 347°
2026-05-07 20:36 40.51687 22.97370 29 ft 13 kts 346°
2026-05-07 20:36 40.51777 22.97341 29 ft 11 kts 347°
2026-05-07 20:36 40.51862 22.97314 27 ft 14 kts 346°
2026-05-07 20:36 40.51967 22.97281 31 ft 16 kts 346°
2026-05-07 20:37 40.52047 22.97255 28 ft 8 kts 346°
2026-05-07 20:37 40.52099 22.97271 28 ft 9 kts 60°
2026-05-07 20:37 40.52094 22.97359 28 ft 11 kts 103°
2026-05-07 20:37 40.52073 22.97469 28 ft 14 kts 104°
2026-05-07 20:38 40.52050 22.97587 28 ft 13 kts 104°
2026-05-07 20:38 40.52031 22.97686 29 ft 8 kts 104°
2026-05-07 20:38 40.52059 22.97749 29 ft 10 kts
2026-05-07 20:38 40.52118 22.97695 28 ft 9 kts 314°
2026-05-07 20:39 40.52149 22.97631 28 ft 9 kts 294°
2026-05-07 20:39 40.52179 22.97552 28 ft 10 kts 304°
2026-05-07 20:39 40.52221 22.97494 28 ft 4 kts 315°
2026-05-07 20:39 40.52251 22.97489 28 ft 6 kts 23°
2026-05-07 20:40 40.52283 22.97525 28 ft 6 kts 44°
2026-05-07 20:40 40.52305 22.97553 28 ft 2 kts 45°
2026-05-07 20:40 40.52316 22.97568 28 ft 2 kts 44°
2026-05-07 20:40 40.52323 22.97576 28 ft 0 kts 44°